Regional Weather Roundup
Issued by NWS

Home | Current Version | Previous Version | Text Only | Print | Product List | Glossary Off
Versions: 1 2 3 4 5 6 7 8 9 10 11 12 13 14 15 16 17 18 19 20 21 22 23 24 25 26 27 28 29 30 31 32 33 34 35 36 37 38 39 40 41 42 43 44 45 46 47 48 49 50

000
ASUS45 KBOU 051407
RWRCO

WEATHER ROUNDUP FOR COLORADO
NATIONAL WEATHER SERVICE DENVER/BOULDER CO
800 AM MDT TUE MAY 05 2015

NOTE: "FAIR" INDICATES FEW OR NO CLOUDS BELOW 12000 FEET WITH NO
SIGNIFICANT WEATHER AND/OR OBSTRUCTIONS TO VISIBILITY.

COZ001>005-013-030-031-051500-
...NORTHWEST COLORADO...

CITY           SKY/WX    TMP DP  RH WIND       PRES   REMARKS
CRAIG          MOSUNNY   43  38  82 CALM      29.94F
HAYDEN         NOT AVBL
MEEKER         MOSUNNY   45  37  73 CALM      29.94F
MOUNT WERNER   NOT AVBL
STEAMBOAT SPGS MOSUNNY   40  35  81 CALM      29.95F
WALDEN         PTSUNNY   32  32 100 CALM      30.01F
$$

COZ006>008-011-051500-
...WEST CENTRAL VALLEYS...

CITY           SKY/WX    TMP DP  RH WIND       PRES   REMARKS
GRAND JUNCTION CLOUDY    55  46  71 SW6       29.86S
MONTROSE       CLOUDY    50  45  83 S3        29.91F
EAGLE          MOSUNNY   43  39  87 CALM      29.99F
RIFLE          MOSUNNY   50  42  74 N3        29.90F
DELTA          CLOUDY    56  45  66 CALM      29.89S
NUCLA          RAIN      48  46  93 CALM      29.96S
$$

COZ017>023-064>068-051500-
...SOUTHWEST COLORADO...

CITY           SKY/WX    TMP DP  RH WIND       PRES   REMARKS
DURANGO        LGT RAIN  46  45  96 W3        29.95R
CORTEZ         LGT RAIN  48  46  93 CALM      29.94S
PAGOSA SPRINGS LGT RAIN  43  42  97 CALM      29.99R
TELLURIDE      LGT RAIN  39  39 100 CALM      30.02S
WOLF CREEK PAS NOT AVBL
$$

COZ009-010-012-014-032>034-037-058>063-051500-
...CENTRAL COLORADO...

CITY           SKY/WX    TMP DP  RH WIND       PRES   REMARKS
ASPEN          MOSUNNY   45  37  73 CALM      29.96F
BUENA VISTA    NOT AVBL
COPPER MTN     PTSUNNY   36  30  80 SE6       30.15S
BERTHOUD PASS  HAZE      27  19  74 SE17      30.18S VSB<1/4 WCI  14
COTTONWOOD PAS FOG       39  37  93 E5        30.08S VSB<1/4
GUNNISON       CLOUDY    45  37  76 CALM      30.00S
KREMMLING      FOG       36  34  93 CALM      30.02S VSB 1/4
LEADVILLE      CLOUDY    36  35  96 CALM      30.07S
MONARCH PASS     N/A     32  30  93 MISG      30.20
SALIDA         CLOUDY    44  42  95 SW3       30.09F
SUNLIGHT       CLOUDY    41  34  75 CALM      30.11F
WILKERSON PASS FOG       32  32 100 CALM      30.16F VSB<1/4
$$

COZ069>075-051500-
...SAN LUIS VALLEY/SANGRE DE CRISTO MOUNTAINS...

CITY           SKY/WX    TMP DP  RH WIND       PRES   REMARKS
ALAMOSA        LGT RAIN  42  40  92 W9        29.97F FOG
LA VETA PASS   CLOUDY    36  36 100 MISG      30.06S VSB 1/4
SAGUACHE       DRIZZLE   45  41  87 CALM      29.99F
$$

COZ035-036-038>040-051500-
...NORTHERN COLORADO FRONT RANGE...

CITY           SKY/WX    TMP DP  RH WIND       PRES   REMARKS
DENVER INTL AP FOG       48  47  96 SE13      29.98S VSB 1/2
DMNS CITY PARK   N/A     49  48  96 N2        29.98S
AURORA         CLOUDY    50  50 100 SE6       29.99S
FRONT RANGE AP FOG       50  50 100 SE14      29.99S VSB 1
ERIE MUNI ARPT CLOUDY    50  49  97 E3        29.99S FOG
BOULDER MUN AP DRIZZLE   48  48 100 NE6       29.98S
CENTENNIAL     CLOUDY    49  47  93 W3        29.99S
BROOMFIELD     FOG       48  48 100 CALM      30.00R VSB 1
FORT COLLINS   CLOUDY    46  45  93 E10       30.00S VSB<1/4
LONGMONT       CLOUDY    51  49  93 E6        30.00S FOG
$$

COZ041-046-047-076>085-087-088-051500-
...PIKES PEAK/PALMER DIVIDE AND SOUTHERN FOOTHILLS...

CITY           SKY/WX    TMP DP  RH WIND       PRES   REMARKS
COLO. SPRINGS  LGT RAIN  48  47  96 E12       30.00F FOG
A. F. ACADEMY  CLOUDY    47  47 100 SE7       29.99F
ELLICOTT       LGT RAIN N/A N/A N/A E12       29.99F
FALCON         FOG       45  45 100 E9        30.02F VSB 1/4
FORT CARSON    NOT AVBL
LIMON          FOG       47  47 100 SE8       30.00F VSB 1/4
MONUMENT HILL  DRIZZLE   45  43  93 E9        30.01F
TRINIDAD       LGT RAIN  50  49  96 SE3       29.94F
$$

COZ042>045-048>051-090-091-051500-
...NORTHEAST COLORADO...

CITY           SKY/WX    TMP DP  RH WIND       PRES   REMARKS
GREELEY ARPT   CLOUDY    46  43  87 SE7       30.00S
AKRON          FOG       47  47 100 E7        30.00F VSB 1/4
BURLINGTON     FOG       53  51  93 E9        29.99F VSB 1/4
WRAY           FOG      N/A N/A N/A NE6       30.01S VSB 1/4
STERLING       CLOUDY    48  46  93 NE3       30.00S FOG
HOLYOKE        NOT AVBL
FORT MORGAN    CLOUDY    48  46  93 E8        30.00F FOG
$$

COZ086-089-092>099-051500-
...SOUTHEAST COLORADO...

CITY           SKY/WX    TMP DP  RH WIND       PRES   REMARKS
PUEBLO         RAIN      50  50 100 NE14      29.94S FOG
LA JUNTA       LGT RAIN  54  53  97 E14       29.94F
LAMAR          RAIN      55  55 100 E10       29.93F FOG
SPRINGFIELD      N/A     52  52 100 SE13      29.94S
$$


USA.gov is the U.S. government's official web portal to all federal, state and local government web resources and services.